Miscellaneous Local Product
Issued by NWS Hastings, NE

Home | Current Version | Previous Version | Text Only | Print | Product List | Glossary On
Versions: 1 2 3 4 5 6 7 8 9 10 11 12 13 14 15 16 17 18 19 20 21 22 23 24 25 26 27 28 29 30 31 32 33 34 35 36 37 38 39 40 41 42 43 44 45 46 47 48 49 50
000
AXUS43 KGID 010602
MISGRI

GID CWA HOURLY WEATHER ROUNDUP
NATIONAL WEATHER SERVICE HASTINGS NE
100 AM CDT FRI AUG 01 2014

NOTE: "FAIR" INDICATES FEW OR NO CLOUDS BELOW 12,000 FEET WITH NO
SIGNIFICANT WEATHER AND/OR OBSTRUCTIONS TO VISIBILITY.

...SOUTH CENTRAL NEBRASKA...

CITY           SKY/WX    TMP DP  RH WIND       PRES   REMARKS
GRAND ISLAND   CLEAR     64  60  87 N6        30.07S
HASTINGS       CLEAR     66  61  84 N6        30.06R
KEARNEY        CLEAR     64  61  88 N8        30.09S
ORD            CLEAR     62  60  93 CALM      30.08S
YORK           CLEAR     63  63 100 NE5       30.04S
AURORA         CLEAR     65  64  99 N6        30.05S
LEXINGTON      CLEAR     60  56  88 NW5       30.10F
HOLDREGE       CLEAR     62  58  87 N7        30.08S
HEBRON         MOCLDY    70  52  52 SW5       30.04S

...NEBRASKA PANHANDLE...

CITY           SKY/WX    TMP DP  RH WIND       PRES   REMARKS
CHADRON        CLEAR     60  47  61 CALM      30.15S
ALLIANCE       PTCLDY    63  46  54 CALM      30.18F
SCOTTSBLUFF    CLEAR     61  52  72 E7        30.19S
SIDNEY         CLEAR     62  44  51 E6        30.22S

...WESTERN AND NORTH CENTRAL NEBRASKA...

CITY           SKY/WX    TMP DP  RH WIND       PRES   REMARKS
VALENTINE      CLEAR     68  58  70 S7        30.11S
AINSWORTH      CLEAR     62  60  94 S3        30.12S
ONEILL         CLEAR     65  62  91 CALM      30.10S
BROKEN BOW     CLEAR     59  57  93 N3        30.11S
IMPERIAL       CLEAR     65  54  67 E3        30.15S
NORTH PLATTE   CLEAR     60  52  74 NE3       30.13R
MCCOOK         CLEAR     66  55  67 N3        30.11S

...EASTERN NEBRASKA...

CITY           SKY/WX    TMP DP  RH WIND       PRES   REMARKS
NORFOLK        CLEAR     63  59  87 CALM      30.07S
SO SIOUX CITY  PTCLDY    59  57  93 CALM      30.07S
TEKAMAH        MOCLDY    67  60  78 SE7       30.06F
ALBION         CLEAR     63  59  87 CALM      30.08S
OMAHA EPPLEY   CLOUDY    73  58  59 S9        30.06S THUNDER
OFFUTT AFB     CLOUDY    68  67  98 SE5       30.06S
MILLARD        MOCLDY    68  62  81 CALM      30.06S
LINCOLN        PTCLDY    69  57  65 E8        30.06R
NEBRASKA CITY  MOCLDY    67  60  78 SE6       30.06F
BEATRICE       CLOUDY    68  60  76 SE8       30.05F
FALLS CITY     HVY RAIN  67  61  81 SE5       30.07R

...NORTHERN KANSAS...

CITY           SKY/WX    TMP DP  RH WIND       PRES   REMARKS
GOODLAND       CLEAR     63  53  70 W10       30.17S
HILL CITY      PTCLDY    73  52  47 CALM      30.08R
NORTON         CLEAR     63  54  72 N6        30.08S
PHILLIPSBURG   CLEAR     72  57  60 SW5       30.06R
SMITH CENTER   PTCLDY    70  57  64 SW5       30.06S
HAYS           PTCLDY    66  55  68 SW7       30.09S
RUSSELL        CLEAR     68  58  70 S12       30.05S
CONCORDIA      PTCLDY    69  54  58 S14       30.05R
SALINA         PTCLDY    65  56  72 S6        30.06S
TOPEKA         CLEAR     67  59  75 SE3       30.04F



USA.gov is the U.S. government's official web portal to all federal, state and local government web resources and services.